logo tempoitalia

Diretta Meteo Santarem-Aeroporto, Brasilelunedì 31 agosto ore 02:00

Mappa
Sereno 29 °C Sereno 24 Ore: T.min 28 T.max 34
Ponente Est/Sud-Est Km/h 9.3 Punto di rugiada: 26 °C Umidità: 83% Visibilità: 10 Km
Il sole sorge alle: 06:37 Il sole tramonta alle: 18:41
31 Agosto 2026 02:00 tempo osservato: Sereno Sereno 29 83 1011 vento: Nord E/SE 9.3
31 Agosto 2026 01:00 tempo osservato: Sereno Sereno 30 79 1011 vento: Nord E 13
31 Agosto 2026 00:00 tempo osservato: Sereno Sereno 29 83 1011 vento: Nord E 9.3
30 Agosto 2026 23:00 tempo osservato: Sereno Sereno 30 74 1012 vento: Nord E 16.7
30 Agosto 2026 22:00 tempo osservato: Sereno Sereno 30 70 1011 vento: Nord E 11.1
30 Agosto 2026 21:00 tempo osservato: Sereno Sereno 30 74 1010 vento: Nord E/SE 11.1
30 Agosto 2026 20:00 tempo osservato: Sereno Sereno 31 66 1010 vento: Nord E 9.3
30 Agosto 2026 19:00 tempo osservato: Sereno Sereno 31 66 1009 vento: Nord E 9.3
30 Agosto 2026 18:00 tempo osservato: Sereno Sereno 33 55 1009 vento: Nord E 16.7
30 Agosto 2026 17:00 tempo osservato: Sereno Sereno 34 49 1009 vento: Nord E 20.3
30 Agosto 2026 16:00 tempo osservato: Sereno Sereno 34 49 1009 vento: Nord E 22.2
30 Agosto 2026 15:00 tempo osservato: Sereno Sereno 34 49 1009 vento: Nord E 20.3
30 Agosto 2026 14:00 tempo osservato: Sereno Sereno 33 59 1010 vento: Nord E 18.5
30 Agosto 2026 13:00 tempo osservato: Sereno Sereno 32 59 1011 vento: Nord E 18.5
30 Agosto 2026 12:00 tempo osservato: Sereno Sereno 32 59 1013 vento: Nord E 24
30 Agosto 2026 11:00 tempo osservato: Poco Nuvoloso Poco Nuvoloso 32 59 1013 vento: Nord E 22.2
30 Agosto 2026 10:00 tempo osservato: Poco Nuvoloso Poco Nuvoloso 31 62 1013 vento: Nord E 27.8
30 Agosto 2026 09:00 tempo osservato: Sereno Sereno 30 66 1013 vento: Nord E 27.8
30 Agosto 2026 08:00 tempo osservato: Sereno Sereno 29 66 1012 vento: Nord E 24
30 Agosto 2026 07:00 tempo osservato: Sereno Sereno 28 74 1011 vento: Nord E 24
30 Agosto 2026 06:00 tempo osservato: Sereno Sereno 28 74 1010 vento: Nord E 18.5
30 Agosto 2026 05:00 tempo osservato: Sereno Sereno 28 74 1010 vento: Nord E 14.8
30 Agosto 2026 04:00 tempo osservato: Sereno Sereno 28 83 1010 vento: Nord E/NE 13
30 Agosto 2026 03:00 tempo osservato: Sereno Sereno 29 79 1010 vento: Nord E 14.8